[[{"header":{"parameterUnit":"m.s-1","parameterCategory":1,"la1":30.2991,"la2":30.254,"lo1":-89.0895,"lo2":-89.0444,"dy":0.0017,"dx":0.0017,"nx":28,"ny":28,"refTime":"2025-02-26T09:00:00:Z","depth":0,"parameterNumber":2,"parameterNumberName":"U-component_of_WINDS"},"data":[0,0,0,0,0,0,0,0,0,0,0,0,0,0,0,0,0,0,0,0,0,0,0,0,0,0,0,0,0,0,0,0,0,0,0,0,0,0,0,0,0,0,0,0,0,0,0,0,0,0,0,0,0,0,0,0,0,0,-1.3692,-1.3692,0,-1.363,-1.363,-1.3629,-1.3576,-1.3576,-1.3575,-1.3574,-1.351,-1.3509,-1.3508,0,0,0,0,0,0,0,0,0,0,0,0,0,-1.3764,-1.3763,-1.3692,-1.3692,-1.3691,-1.363,-1.363,-1.3629,-1.3576,-1.3575,-1.3575,-1.3574,-1.351,-1.3509,-1.3508,0,0,0,0,0,0,0,0,0,0,0,0,0,-1.3721,-1.3763,-1.3693,-1.3657,-1.3654,-1.3631,-1.363,-1.3629,-1.3576,-1.3575,-1.3575,-1.3574,-1.3511,-1.3509,-1.3507,-1.3514,0,0,-1.3502,-1.3501,0,0,0,0,0,0,0,0,-1.3723,-1.3718,-1.3663,-1.366,-1.3655,-1.361,-1.3631,-1.359,-1.3577,-1.3606,-1.3574,-1.3573,-1.3544,-1.3539,-1.353,-1.3511,-1.3508,-1.3502,-1.3501,-1.35,-1.35,0,0,0,0,0,0,0,-1.3727,-1.3721,-1.3668,-1.3663,-1.3658,-1.3644,-1.3637,-1.3623,-1.358,-1.3603,-1.3599,-1.3593,-1.3542,-1.3532,-1.3528,-1.3507,-1.3502,-1.35,-1.3499,-1.3499,-1.349,-1.3491,0,0,0,0,0,0,-1.3735,-1.3724,-1.367,-1.3666,-1.3688,-1.3644,-1.3636,-1.3626,-1.358,-1.3573,-1.3593,-1.359,-1.3535,-1.353,-1.3525,-1.3529,-1.35,-1.3498,-1.3497,-1.349,-1.3491,-1.3492,0,0,0,0,0,0,-1.3737,-1.3731,-1.3672,-1.3694,-1.3685,-1.3644,-1.3632,-1.3625,-1.3614,-1.3573,-1.3565,-1.3591,-1.3534,-1.3528,-1.3517,-1.3526,-1.3498,-1.3496,-1.3489,-1.349,-1.3491,-1.3538,0,0,0,0,0,0,-1.3739,-1.3732,-1.3734,-1.3694,-1.3684,-1.3665,-1.3633,-1.3624,-1.3612,-1.3607,-1.3569,-1.3561,-1.3533,-1.352,-1.3515,-1.3523,-1.3495,-1.3488,-1.3489,-1.3491,-1.3535,-1.3541,-1.3545,0,0,0,0,0,-1.3742,-1.3749,-1.3734,-1.3728,-1.3686,-1.3666,-1.366,-1.3628,-1.3613,-1.3614,-1.3588,-1.3563,-1.3527,-1.3519,-1.3514,-1.3521,-1.3487,-1.3489,-1.3491,-1.3533,-1.354,-1.3545,0,0,0,0,0,0,-1.3791,-1.3744,-1.3726,-1.3721,-1.3698,-1.3657,-1.3658,-1.3636,-1.3616,-1.3612,-1.3572,-1.3564,-1.3558,-1.3539,-1.3532,-1.3525,-1.3503,-1.3504,-1.3538,-1.3543,-1.3548,-1.3552,-1.3493,0,0,0,0,0,-1.3801,-1.3789,-1.3748,-1.3748,-1.3737,-1.37,-1.369,-1.3667,-1.3641,-1.3631,-1.3604,-1.358,-1.3562,-1.3552,-1.3534,-1.3533,-1.3523,-1.3535,-1.354,-1.3545,-1.3545,-1.3542,-1.3547,-1.3498,-1.3498,-1.3498,0,0,-1.3822,-1.3795,-1.3789,-1.3757,-1.3736,-1.3724,-1.3692,-1.3681,-1.3671,-1.3629,-1.3617,-1.3597,-1.3567,-1.3561,-1.3557,-1.3545,-1.3557,-1.3547,-1.3551,-1.3549,-1.3545,-1.3549,-1.3554,-1.3499,-1.3499,-1.3499,0,0,-1.3854,-1.3832,-1.3829,-1.3809,-1.3779,-1.3754,-1.3754,-1.3716,-1.3701,-1.3689,-1.3657,-1.3645,-1.3617,-1.3597,-1.3583,-1.3608,-1.3584,-1.3604,-1.3629,-1.3626,-1.363,-1.3634,-1.3641,-1.3645,-1.3605,-1.3605,-1.3605,0,-1.3883,-1.3864,-1.383,-1.3821,-1.3807,-1.377,-1.3766,-1.3748,-1.3713,-1.3705,-1.3692,-1.3656,-1.3633,-1.3622,-1.3628,-1.3619,-1.3616,-1.3607,-1.3633,-1.3635,-1.3638,-1.3645,-1.3648,-1.3608,-1.3607,-1.3607,-1.3607,0,-1.3901,-1.3889,-1.389,-1.3857,-1.3844,-1.3838,-1.3803,-1.3794,-1.3772,-1.3749,-1.3737,-1.3709,-1.3684,-1.368,-1.3659,-1.3665,-1.3659,-1.364,-1.3617,-1.3646,-1.3652,-1.3654,-1.3611,-1.361,-1.361,-1.3609,0,0,-1.396,-1.391,-1.3911,-1.3896,-1.386,-1.3849,-1.3841,-1.3818,-1.381,-1.3788,-1.3779,-1.3757,-1.374,-1.3724,-1.3701,-1.3699,-1.3719,-1.368,-1.3679,-1.3687,-1.3724,-1.3737,-1.3741,-1.3704,-1.3705,-1.3705,-1.3726,0,-1.3985,-1.3968,-1.3938,-1.3931,-1.3918,-1.3883,-1.3876,-1.3853,-1.3831,-1.3818,-1.3794,-1.3778,-1.3757,-1.3747,-1.3744,-1.3718,-1.3726,-1.3716,-1.3695,-1.3695,-1.3702,-1.3744,-1.3758,-1.3779,-1.3728,-1.3729,-1.3729,0,-1.4011,-1.3991,-1.3983,-1.3948,-1.3941,-1.3935,-1.3911,-1.3899,-1.3872,-1.3857,-1.384,-1.3814,-1.3804,-1.3784,-1.3769,-1.3762,-1.3752,-1.3739,-1.3739,-1.3734,-1.3712,-1.3739,-1.3785,-1.3788,-1.3732,-1.3732,-1.3732,0,-1.4053,-1.4024,-1.4015,-1.4004,-1.3963,-1.396,-1.3942,-1.3915,-1.3903,-1.3882,-1.3874,-1.3852,-1.384,-1.3824,-1.3793,-1.3782,-1.3781,-1.3759,-1.3767,-1.3768,-1.3767,-1.3767,-1.381,-1.3763,-1.3763,-1.3763,-1.3763,0,-1.4082,-1.4078,-1.4034,-1.4028,-1.4023,-1.3988,-1.3984,-1.3963,-1.394,-1.3929,-1.3898,-1.3889,-1.3849,-1.3836,-1.3812,-1.3802,-1.3797,-1.3784,-1.3777,-1.3786,-1.3787,-1.3777,-1.3774,-1.3764,-1.3764,-1.3764,-1.3764,0,-1.4128,-1.4098,-1.4086,-1.4049,-1.4039,-1.4037,-1.4004,-1.3998,-1.3975,-1.3962,-1.3957,-1.3921,-1.3903,-1.3872,-1.3845,-1.3829,-1.3824,-1.3813,-1.3832,-1.3828,-1.3837,-1.3836,-1.3874,-1.3877,-1.383,-1.3831,-1.3831,0,-1.4148,-1.4144,-1.4107,-1.4098,-1.4082,-1.4068,-1.4055,-1.4022,-1.401,-1.398,-1.3977,-1.3957,-1.3939,-1.3912,-1.3883,-1.3863,-1.3851,-1.3865,-1.3847,-1.3856,-1.3849,-1.3849,-1.3848,-1.3869,-1.387,-1.387,-1.3871,0,-1.4186,-1.4171,-1.4155,-1.4134,-1.412,-1.4101,-1.4081,-1.4075,-1.4037,-1.4026,-1.4008,-1.3994,-1.3967,-1.3947,-1.3923,-1.3904,-1.3881,-1.3877,-1.3877,-1.3885,-1.3896,-1.3889,-1.3842,-1.3876,-1.3875,-1.3875,-1.3875,-1.3874,-1.4218,-1.4213,-1.4186,-1.4168,-1.415,-1.4132,-1.4124,-1.41,-1.4084,-1.406,-1.4041,-1.4024,-1.3998,-1.3963,-1.3946,-1.3932,-1.3921,-1.3922,-1.3922,-1.3923,-1.3925,-1.39,-1.3928,-1.3928,-1.3927,-1.3927,-1.3927,0,-1.4253,-1.4234,-1.4219,-1.4192,-1.4178,-1.4159,-1.4136,-1.4125,-1.4111,-1.4089,-1.4072,-1.4051,-1.4032,-1.4002,-1.3981,-1.3975,-1.3964,-1.397,-1.397,-1.3966,-1.3937,-1.3938,-1.398,-1.398,-1.398,-1.398,-1.398,-1.398,-1.427,-1.426,-1.4242,-1.4223,-1.4204,-1.4187,-1.4175,-1.4158,-1.414,-1.4118,-1.4103,-1.4084,-1.4058,-1.4035,-1.4016,-1.4008,-1.4001,-1.4011,-1.3999,-1.3973,-1.3968,-1.3963,-1.3964,-1.401,-1.401,-1.4029,-1.4029,-1.4029]},{"header":{"parameterUnit":"m.s-1","parameterCategory":1,"la1":30.2991,"la2":30.254,"lo1":-89.0895,"lo2":-89.0444,"dy":0.0017,"dx":0.0017,"nx":28,"ny":28,"refTime":"2025-02-26T09:00:00:Z","depth":0,"parameterNumber":3,"parameterNumberName":"V-component_of_WINDS"},"data":[0,0,0,0,0,0,0,0,0,0,0,0,0,0,0,0,0,0,0,0,0,0,0,0,0,0,0,0,0,0,0,0,0,0,0,0,0,0,0,0,0,0,0,0,0,0,0,0,0,0,0,0,0,0,0,0,0,0,1.8732,1.8732,0,1.8743,1.8743,1.8743,1.878,1.878,1.8781,1.8782,1.8791,1.8791,1.879,0,0,0,0,0,0,0,0,0,0,0,0,0,1.8739,1.8739,1.8732,1.8732,1.8732,1.8743,1.8743,1.8743,1.878,1.8781,1.8782,1.8782,1.8791,1.8791,1.879,0,0,0,0,0,0,0,0,0,0,0,0,0,1.8742,1.8739,1.8731,1.8751,1.8753,1.8743,1.8743,1.8743,1.8779,1.8781,1.8782,1.8783,1.8792,1.8791,1.879,1.8761,0,0,1.8788,1.8787,0,0,0,0,0,0,0,0,1.8741,1.8741,1.8748,1.875,1.8752,1.8761,1.8749,1.8749,1.8779,1.8769,1.8782,1.8783,1.878,1.878,1.878,1.8761,1.8762,1.8788,1.8787,1.8787,1.8787,0,0,0,0,0,0,0,1.8741,1.8741,1.8736,1.8748,1.8751,1.8759,1.8761,1.8749,1.8768,1.877,1.8773,1.8774,1.8781,1.878,1.878,1.8762,1.8788,1.8787,1.8786,1.8786,1.8721,1.872,0,0,0,0,0,0,1.8739,1.8741,1.8736,1.8736,1.875,1.8758,1.876,1.8757,1.8768,1.8771,1.8773,1.8776,1.8781,1.8781,1.8781,1.8748,1.8787,1.8786,1.8786,1.8723,1.8721,1.872,0,0,0,0,0,0,1.8739,1.8738,1.8735,1.8739,1.874,1.8757,1.8753,1.8757,1.8756,1.877,1.8773,1.8769,1.8782,1.8782,1.8766,1.8749,1.8786,1.8785,1.8724,1.8722,1.872,1.8682,0,0,0,0,0,0,1.8739,1.8738,1.8727,1.8739,1.8739,1.8721,1.8752,1.8756,1.8755,1.8758,1.8767,1.8769,1.8783,1.8767,1.8765,1.8748,1.8784,1.8726,1.8723,1.8721,1.8685,1.8679,1.8674,0,0,0,0,0,1.8739,1.8715,1.8726,1.8725,1.8726,1.872,1.872,1.8737,1.8753,1.8742,1.8752,1.8769,1.8751,1.8765,1.8763,1.8746,1.8727,1.8724,1.8721,1.8687,1.868,1.8674,0,0,0,0,0,0,1.8699,1.8717,1.8729,1.8709,1.8713,1.8726,1.8713,1.8729,1.8727,1.873,1.8751,1.8752,1.8734,1.8738,1.8754,1.8719,1.8742,1.8739,1.8717,1.871,1.8705,1.8704,1.8784,0,0,0,0,0,1.8688,1.8682,1.8697,1.8677,1.8679,1.8695,1.8693,1.8706,1.871,1.8712,1.872,1.8723,1.8718,1.8714,1.8711,1.8686,1.8689,1.8673,1.8668,1.8663,1.866,1.8648,1.8642,1.871,1.871,1.8711,0,0,1.8665,1.8674,1.8668,1.867,1.8674,1.8667,1.8696,1.8687,1.8682,1.871,1.8696,1.8702,1.8707,1.8687,1.8679,1.869,1.8642,1.866,1.8656,1.8655,1.8645,1.8638,1.8633,1.8709,1.8709,1.8709,0,0,1.8619,1.8625,1.861,1.8614,1.8621,1.8633,1.8629,1.864,1.8646,1.8632,1.8654,1.8648,1.8639,1.8642,1.8642,1.8599,1.8615,1.8597,1.8568,1.8557,1.8551,1.8546,1.8532,1.8526,1.8594,1.8593,1.8593,0,1.8589,1.858,1.86,1.859,1.859,1.8617,1.8601,1.8604,1.8609,1.8608,1.8622,1.8612,1.8617,1.8598,1.8588,1.8587,1.8584,1.8596,1.855,1.8546,1.8542,1.8528,1.8522,1.8591,1.8592,1.8592,1.8592,0,1.8543,1.8536,1.8523,1.8528,1.8527,1.8514,1.8532,1.8528,1.8541,1.8551,1.8538,1.8545,1.8544,1.854,1.8552,1.8524,1.8531,1.8547,1.857,1.8533,1.852,1.8515,1.8588,1.8589,1.859,1.859,0,0,1.8471,1.849,1.8484,1.8488,1.8498,1.8493,1.8481,1.8481,1.8478,1.8481,1.8472,1.8464,1.848,1.848,1.8493,1.8482,1.8449,1.85,1.8501,1.8491,1.8418,1.8406,1.8399,1.846,1.8459,1.8458,1.8418,0,1.8429,1.8411,1.8429,1.8408,1.8402,1.8428,1.8418,1.8423,1.8432,1.8428,1.8438,1.8433,1.8453,1.8454,1.8445,1.8455,1.8434,1.8458,1.8451,1.8451,1.8449,1.8393,1.838,1.8341,1.8413,1.8412,1.8411,0,1.8376,1.8378,1.8356,1.8369,1.8367,1.8358,1.836,1.8356,1.8362,1.837,1.8371,1.8387,1.8377,1.84,1.8386,1.8402,1.84,1.8404,1.8403,1.8403,1.8429,1.8391,1.8329,1.8324,1.8404,1.8404,1.8405,0,1.8327,1.8324,1.8311,1.8313,1.8327,1.832,1.8326,1.8334,1.8333,1.8334,1.8334,1.8334,1.8334,1.8333,1.8349,1.8364,1.8333,1.8357,1.8339,1.8338,1.8331,1.8331,1.8268,1.8329,1.8329,1.833,1.833,0,1.8277,1.8263,1.8289,1.8281,1.8266,1.8287,1.8271,1.8279,1.8286,1.828,1.8302,1.8296,1.8317,1.8313,1.8325,1.8312,1.8311,1.8317,1.832,1.8315,1.8314,1.8314,1.8317,1.8328,1.8328,1.8329,1.8329,0,1.8219,1.8236,1.8224,1.8239,1.8243,1.8231,1.8244,1.8237,1.8248,1.824,1.824,1.8257,1.8253,1.8269,1.8268,1.8276,1.8257,1.8264,1.8255,1.8257,1.8238,1.824,1.8173,1.8165,1.8231,1.823,1.823,0,1.8186,1.8176,1.8191,1.8189,1.8194,1.819,1.819,1.8211,1.8209,1.8217,1.8209,1.8207,1.8207,1.82,1.8212,1.8211,1.8219,1.8196,1.8219,1.8215,1.8219,1.822,1.8219,1.8191,1.819,1.8189,1.8189,0,1.8127,1.8136,1.8135,1.8138,1.8137,1.814,1.8144,1.814,1.8163,1.816,1.8157,1.8157,1.8157,1.8155,1.8157,1.8162,1.8179,1.8182,1.8177,1.8172,1.8167,1.817,1.8242,1.8183,1.8183,1.8184,1.8184,1.8184,1.8081,1.8074,1.8083,1.8082,1.8087,1.8091,1.8086,1.8097,1.8095,1.8097,1.8109,1.8104,1.8112,1.8116,1.812,1.8116,1.8127,1.8121,1.812,1.8118,1.8115,1.8168,1.8117,1.8117,1.8117,1.8117,1.8117,0,1.8023,1.8031,1.8029,1.8035,1.8034,1.8051,1.8057,1.8055,1.805,1.8056,1.8056,1.8053,1.8052,1.8065,1.8065,1.8059,1.8067,1.8059,1.8059,1.8061,1.8105,1.8108,1.8053,1.8053,1.8053,1.8053,1.8053,1.8053,1.7992,1.7981,1.7992,1.7984,1.7992,1.7988,1.799,1.7993,1.7998,1.7994,1.7994,1.8002,1.8011,1.8012,1.8012,1.8016,1.8015,1.8004,1.801,1.8051,1.8057,1.8063,1.8067,1.8003,1.8003,1.7966,1.7966,1.7966]}]]